Regional Weather Roundup
Issued by NWS

Home | Current Version | Previous Version | Graphics & Text | Print | Product List | Glossary On
Versions: 1 2 3 4 5 6 7 8 9 10 11 12 13 14 15 16 17 18 19 20 21 22 23 24 25 26 27 28 29 30 31 32 33 34 35 36 37 38 39 40 41 42 43 44 45 46 47 48 49 50
000
ASUS43 KOAX 011410
RWRNE

WEATHER ROUNDUP FOR NEBRASKA
NATIONAL WEATHER SERVICE OMAHA NE
900 AM CDT WED OCT 01 2014

NOTES: SATELLITE DATA IS BEING USED TO AUGMENT CLOUD COVER ABOVE
       12000 FEET.
       "FAIR" INDICATES FEW OR NO CLOUDS BELOW 12,000 FEET WITH NO
       SIGNIFICANT WEATHER AND/OR OBSTRUCTIONS TO VISIBILITY.

  * THESE STATIONS DO NOT REPORT WEATHER SUCH AS RAIN...SNOW OR FOG.

NEZ001>004-019>022-054>056-011500-
NEBRASKA PANHANDLE

CITY           SKY/WX    TMP DP  RH WIND       PRES   REMARKS
SCOTTSBLUFF    SUNNY     47  45  93 W5        29.88R
ALLIANCE       SUNNY     44  42  93 W5        29.86R
CHADRON        SUNNY     50  46  86 SW7       29.85R
KIMBALL        PTSUNNY   49  42  75 NW6       29.88R
SIDNEY         PTSUNNY   49  42  77 NW8       29.88R
$$

NEZ057>060-069>072-079>082-011500-
SOUTHWEST NEBRASKA

CITY           SKY/WX    TMP DP  RH WIND       PRES   REMARKS
NORTH PLATTE   SUNNY     53  49  86 NW7       29.81R
IMPERIAL       SUNNY     52  44  74 NW10      29.83S
LEXINGTON      FOG       54  54  97 N5        29.78R VSB 1/4
MCCOOK         MOSUNNY   53  52  96 W3        29.82R FOG
OGALLALA       SUNNY     49  48  95 W5        29.84S
$$

NEZ005>010-023>029-035>040-094-011500-
NORTH CENTRAL NEBRASKA

CITY           SKY/WX    TMP DP  RH WIND       PRES   REMARKS
VALENTINE      SUNNY     52  47  83 NW7       29.81R
AINSWORTH      SUNNY     54  47  78 CALM      29.79S
BROKEN BOW     PTSUNNY   60  52  74 NW7       29.77R
O`NEILL        PTSUNNY   60  55  81 CALM      29.75R
ORD            MOSUNNY   60  57  89 NW5       29.74R
THEDFORD       SUNNY     55  49  80 NW3       29.82R
$$

NEZ041-046>049-061>064-073>077-083>087-011500-
SOUTH CENTRAL NEBRASKA

CITY           SKY/WX    TMP DP  RH WIND       PRES   REMARKS
GRAND ISLAND   MOSUNNY   63  61  93 SE6       29.75S FOG
AURORA         FOG       61  61 100 E7        29.76S VSB<1/4
HASTINGS       MOSUNNY   63  59  87 SE5       29.76S FOG
HEBRON         CLOUDY    64  62  94 N7        29.76R FOG
HOLDREGE       FOG       56  55  96 CALM      29.78R VSB<1/4
KEARNEY *      CLOUDY    57  57 100 S5        29.77S VSB 1/4
YORK           MOSUNNY   63  61  94 E7        29.76F
$$

NEZ011>018-030>034-042>045-011500-
NORTHEAST NEBRASKA

CITY           SKY/WX    TMP DP  RH WIND       PRES   REMARKS
NORFOLK        MOSUNNY   62  59  90 E8        29.73F
ALBION         FOG       60  58  94 SE5       29.75R VSB 1
BLAIR          PTSUNNY   62  60  93 CALM      29.76R FOG
COLUMBUS *     PTSUNNY   61  57  88 E6        29.77S
FREMONT        CLOUDY    63  61  93 CALM      29.77R
TEKAMAH        MOSUNNY   63  61  93 CALM      29.76R
WAYNE          SUNNY     64  59  86 S5        29.75F
$$

NEZ050>053-065>068-078-088>093-011500-
SOUTHEAST NEBRASKA

CITY           SKY/WX    TMP DP  RH WIND       PRES   REMARKS
LINCOLN        CLOUDY    64  60  87 E5        29.77R
OMAHA EPPLEY   PTSUNNY   65  60  84 CALM      29.76R
BEATRICE       CLOUDY    66  64  94 CALM      29.74R
FALLS CITY     CLOUDY    65  63  93 SE7       29.75R
NEBRASKA CITY  CLOUDY    63  63 100 CALM      29.75S
PLATTSMOUTH      N/A     62  60  90 CALM      29.75R
$$

NEZ044-045-051>053-067-011500-
OMAHA AREA

CITY           SKY/WX    TMP DP  RH WIND       PRES   REMARKS
OMAHA EPPLEY   PTSUNNY   65  60  84 CALM      29.76R
BLAIR          PTSUNNY   62  60  93 CALM      29.76R FOG
FREMONT        CLOUDY    63  61  93 CALM      29.77R
MILLARD        CLOUDY    64  62  91 CALM      29.76R
OFFUTT AFB     CLOUDY    63  63 100 E5        29.75R
PLATTSMOUTH      N/A     62  60  90 CALM      29.75R
WAHOO          CLOUDY    61  59  92 CALM      29.77R
$$



USA.gov is the U.S. government's official web portal to all federal, state and local government web resources and services.